Погода в Ламегу

Португалия     41°05′53″N   7°48′24″W
темп.,
°C
ветер,
м/с
пор.,
м/с
влажн.,
%
обл.,
%
осадки,
мм/ч
давл.,
гПа
погр.,
м
25 мая, ср
ср2501:00+8с248579 0.0 102199
04:00+7с2286100 0.0 102131
07:00+7св1283100 0.0 102257
10:00+13св335883 0.0 1023721
13:00+17св34405 0.0 10221214
16:00+20св35325 0.0 10211662
19:00+20всв35395 0.0 10211356
22:00+14всв01502 0.0 102311
26 мая, чт
чт2601:00+13всв22575 0.0 102424
04:00+10св23695 0.0 102540
07:00+10св24705 0.0 102697
10:00+16всв365018 0.0 1025589
13:00+21всв46395 0.0 10241016
16:00+25св46315 0.0 10211727
19:00+24всв36325 0.0 1021739
22:00+17в27425 0.0 102396
27 мая, пт
пт2701:00+15всв37525 0.0 1023167
04:00+12св23665 0.0 102342
07:00+12всв26755 0.0 1024163
10:00+19всв474477 0.0 1023602
13:00+24всв573242 0.0 10211193
16:00+28всв572270 0.0 10182237
19:00+26всв582778 0.0 1017687
22:00+20всв411355 0.0 1018261
28 мая, сб
сб2801:00+16всв23493 0.0 101938
04:00+14св34623 0.0 101859
07:00+13св34723 0.0 101899
10:00+20всв34540 0.0 1017463
13:00+25всв33390 0.0 10151048
16:00+28ссв342845 0.0 10132464
19:00+26ссв453333 0.0 1011477
22:00+18с01555 0.1 101312
29 мая, вс
вс2901:00+16в11594 0.1 101314
04:00+15св23655 0.0 101343
07:00+14св34643 0.0 1016107
10:00+20св46385 0.0 1016544
13:00+26св33293 0.0 1016936
16:00+29с22250 0.0 10131681
19:00+28ссз13272 0.0 10131212
22:00+19зюз115642 0.0 101625